WZZ26Y EPGD-EGPD

Flight info

Callsign WZZ26Y
Flight time 1h 57m
Altitude 34000
Route DEXIR Y100 MALOX L621 DEVEL DCT AMROR DCT PETIL DCT REKNA DCT RIVOT DCT RATPU
Aircraft A321/M-SDE3FGHIRWY/LB1

Departure

Time 2026-05-09 05:57
Airport Gdańsk Lech Wałęsa Airport (EPGD)

Arrival

Time 2026-05-09 07:54
Airport Aberdeen International Airport (EGPD)
Time Latitude Longitude Altitude Speed Heading
2026-05-09 05:24 54.38189 18.46315 460 ft 0 kts 23°
2026-05-09 05:47 54.38187 18.46313 459 ft 2 kts 22°
2026-05-09 05:47 54.38163 18.46303 458 ft 4 kts 350°
2026-05-09 05:48 54.38142 18.46322 459 ft 4 kts 306°
2026-05-09 05:48 54.38133 18.46347 459 ft 0 kts 293°
2026-05-09 05:50 54.38133 18.46346 459 ft 0 kts 293°
2026-05-09 05:50 54.38136 18.46335 458 ft 2 kts 293°
2026-05-09 05:51 54.38148 18.46287 459 ft 8 kts 293°
2026-05-09 05:51 54.38173 18.46184 459 ft 10 kts 292°
2026-05-09 05:51 54.38146 18.46090 459 ft 10 kts 209°
2026-05-09 05:51 54.38080 18.46081 458 ft 11 kts 148°
2026-05-09 05:52 54.38043 18.46192 459 ft 11 kts 113°
2026-05-09 05:52 54.38011 18.46320 459 ft 12 kts 112°
2026-05-09 05:52 54.37977 18.46459 458 ft 13 kts 112°
2026-05-09 05:52 54.37941 18.46607 459 ft 14 kts 113°
2026-05-09 05:53 54.37891 18.46807 457 ft 23 kts 113°
2026-05-09 05:53 54.37817 18.47103 458 ft 30 kts 113°
2026-05-09 05:53 54.37736 18.47428 461 ft 29 kts 113°
2026-05-09 05:53 54.37659 18.47739 464 ft 27 kts 113°
2026-05-09 05:54 54.37588 18.48028 470 ft 25 kts 113°
2026-05-09 05:54 54.37523 18.48292 475 ft 23 kts 113°
2026-05-09 05:54 54.37466 18.48522 483 ft 19 kts 113°
2026-05-09 05:54 54.37414 18.48735 483 ft 21 kts 112°
2026-05-09 05:55 54.37351 18.48985 489 ft 23 kts 114°
2026-05-09 05:55 54.37294 18.49207 491 ft 13 kts 113°
2026-05-09 05:55 54.37230 18.49269 496 ft 12 kts 195°
2026-05-09 05:55 54.37161 18.49182 492 ft 13 kts 229°
2026-05-09 05:56 54.37160 18.49033 488 ft 14 kts 290°
2026-05-09 05:56 54.37238 18.48715 488 ft 61 kts 293°
2026-05-09 05:56 54.37498 18.47664 466 ft 129 kts 293°
2026-05-09 05:56 54.37906 18.45990 659 ft 160 kts 292°
2026-05-09 05:57 54.38332 18.44263 1432 ft 159 kts 294°
2026-05-09 05:57 54.38779 18.42474 2050 ft 167 kts 294°
2026-05-09 05:57 54.39230 18.40608 2644 ft 170 kts 295°
2026-05-09 05:57 54.39695 18.38722 3222 ft 173 kts 295°
2026-05-09 05:58 54.40172 18.36816 3711 ft 180 kts 295°
2026-05-09 05:58 54.40696 18.34719 3944 ft 202 kts 295°
2026-05-09 05:58 54.41265 18.32414 4183 ft 223 kts 294°
2026-05-09 05:58 54.41890 18.29857 4525 ft 239 kts 294°
2026-05-09 05:59 54.42520 18.27178 5138 ft 250 kts 288°
2026-05-09 05:59 54.42619 18.24096 5428 ft 271 kts 255°
2026-05-09 05:59 54.41734 18.21230 5989 ft 277 kts 223°
2026-05-09 05:59 54.40156 18.19371 6690 ft 278 kts 205°
2026-05-09 06:00 54.38466 18.17677 7338 ft 284 kts 209°
2026-05-09 06:00 54.36801 18.15796 8043 ft 289 kts 217°
2026-05-09 06:00 54.35391 18.13294 8745 ft 295 kts 233°
2026-05-09 06:00 54.34378 18.10239 9459 ft 298 kts 249°
2026-05-09 06:01 54.33687 18.06864 10195 ft 300 kts 252°
2026-05-09 06:01 54.32990 18.03427 10596 ft 315 kts 252°
2026-05-09 06:01 54.32230 17.99749 10737 ft 338 kts 251°
2026-05-09 06:01 54.31418 17.95848 10953 ft 355 kts 251°
2026-05-09 06:02 54.30574 17.91819 11509 ft 361 kts 251°
2026-05-09 06:02 54.29731 17.87808 12152 ft 364 kts 252°
2026-05-09 06:02 54.28876 17.83721 12821 ft 366 kts 252°
2026-05-09 06:02 54.28077 17.79564 13492 ft 368 kts 255°
2026-05-09 06:03 54.27361 17.75360 14191 ft 369 kts 257°
2026-05-09 06:03 54.26686 17.71112 14788 ft 371 kts 257°
2026-05-09 06:03 54.26018 17.66827 15380 ft 374 kts 257°
2026-05-09 06:03 54.25339 17.62522 15965 ft 376 kts 256°
2026-05-09 06:04 54.24641 17.58192 16559 ft 379 kts 256°
2026-05-09 06:04 54.23923 17.53838 17144 ft 382 kts 255°
2026-05-09 06:04 54.23191 17.49469 17768 ft 383 kts 255°
2026-05-09 06:04 54.22646 17.45002 18354 ft 385 kts 264°
2026-05-09 06:05 54.22582 17.40428 18870 ft 386 kts 274°
2026-05-09 06:05 54.22765 17.35836 19379 ft 389 kts 274°
2026-05-09 06:05 54.22939 17.31206 19891 ft 391 kts 274°
2026-05-09 06:05 54.23107 17.26552 20405 ft 394 kts 274°
2026-05-09 06:06 54.23273 17.21866 20900 ft 397 kts 274°
2026-05-09 06:06 54.23436 17.17134 21377 ft 400 kts 274°
2026-05-09 06:06 54.23596 17.12447 21846 ft 402 kts 274°
2026-05-09 06:06 54.23760 17.07658 22314 ft 405 kts 274°
2026-05-09 06:07 54.23921 17.02843 22777 ft 407 kts 274°
2026-05-09 06:07 54.24084 16.97989 23219 ft 409 kts 274°
2026-05-09 06:07 54.24373 16.93141 23662 ft 411 kts 281°
2026-05-09 06:07 54.25133 16.88422 24045 ft 413 kts 291°
2026-05-09 06:08 54.26369 16.83985 24406 ft 415 kts 301°
2026-05-09 06:08 54.28021 16.79927 24785 ft 416 kts 307°
2026-05-09 06:08 54.29767 16.75958 25147 ft 418 kts 307°
2026-05-09 06:08 54.31517 16.71964 25514 ft 420 kts 307°
2026-05-09 06:09 54.33269 16.67946 25873 ft 422 kts 307°
2026-05-09 06:09 54.35027 16.63897 26225 ft 424 kts 307°
2026-05-09 06:09 54.36791 16.59833 26576 ft 426 kts 307°
2026-05-09 06:09 54.38566 16.55747 26931 ft 428 kts 307°
2026-05-09 06:10 54.40348 16.51637 27244 ft 431 kts 307°
2026-05-09 06:10 54.42138 16.47501 27573 ft 433 kts 307°
2026-05-09 06:10 54.43938 16.43335 27899 ft 435 kts 307°
2026-05-09 06:10 54.45743 16.39145 28220 ft 437 kts 307°
2026-05-09 06:11 54.47553 16.34929 28539 ft 439 kts 307°
2026-05-09 06:11 54.49344 16.30752 28842 ft 441 kts 307°
2026-05-09 06:11 54.51168 16.26492 29170 ft 443 kts 307°
2026-05-09 06:11 54.52998 16.22208 29504 ft 444 kts 307°
2026-05-09 06:12 54.54835 16.17911 29828 ft 446 kts 307°
2026-05-09 06:12 54.56677 16.13600 30211 ft 446 kts 307°
2026-05-09 06:12 54.58515 16.09299 30597 ft 445 kts 307°
2026-05-09 06:12 54.60347 16.05004 30960 ft 444 kts 307°
2026-05-09 06:13 54.62170 16.00712 31304 ft 444 kts 307°
2026-05-09 06:13 54.63991 15.96418 31631 ft 443 kts 307°
2026-05-09 06:13 54.65809 15.92122 31966 ft 443 kts 307°
2026-05-09 06:13 54.67598 15.87884 32290 ft 442 kts 307°
2026-05-09 06:14 54.69409 15.83585 32610 ft 442 kts 307°
2026-05-09 06:14 54.71216 15.79283 32928 ft 442 kts 307°
2026-05-09 06:14 54.72929 15.74873 33231 ft 442 kts 300°
2026-05-09 06:14 54.74268 15.70083 33521 ft 442 kts 294°
2026-05-09 06:15 54.75472 15.65193 33816 ft 442 kts 294°
2026-05-09 06:15 54.76680 15.60297 34117 ft 442 kts 294°
2026-05-09 06:15 54.77887 15.55404 34244 ft 441 kts 294°
2026-05-09 06:15 54.79089 15.50529 34270 ft 439 kts 294°
2026-05-09 06:16 54.81458 15.40863 34262 ft 438 kts 294°
2026-05-09 06:16 54.83827 15.31140 34267 ft 437 kts 294°
2026-05-09 06:17 54.86179 15.21412 34266 ft 437 kts 294°
2026-05-09 06:17 54.88526 15.11679 34266 ft 437 kts 293°
2026-05-09 06:18 54.90218 15.01537 34269 ft 438 kts 285°
2026-05-09 06:18 54.91731 14.91269 34257 ft 438 kts 285°
2026-05-09 06:19 54.93239 14.80997 34250 ft 438 kts 286°
2026-05-09 06:19 54.94730 14.70807 34257 ft 437 kts 286°
2026-05-09 06:20 54.96219 14.60546 34260 ft 437 kts 285°
2026-05-09 06:20 54.97696 14.50283 34263 ft 437 kts 285°
2026-05-09 06:21 54.99159 14.40015 34267 ft 437 kts 285°
2026-05-09 06:21 55.00609 14.29753 34265 ft 436 kts 286°
2026-05-09 06:22 55.02051 14.19507 34283 ft 435 kts 286°
2026-05-09 06:22 55.03485 14.09275 34287 ft 434 kts 286°
2026-05-09 06:23 55.04907 13.99044 34285 ft 433 kts 286°
2026-05-09 06:23 55.06319 13.88827 34285 ft 433 kts 286°
2026-05-09 06:24 55.07720 13.78597 34264 ft 433 kts 287°
2026-05-09 06:24 55.09097 13.68450 34290 ft 431 kts 287°
2026-05-09 06:25 55.10478 13.58268 34291 ft 430 kts 287°
2026-05-09 06:25 55.11851 13.48109 34294 ft 430 kts 287°
2026-05-09 06:26 55.13207 13.37945 34293 ft 429 kts 287°
2026-05-09 06:26 55.14547 13.27779 34269 ft 429 kts 287°
2026-05-09 06:27 55.15880 13.17642 34299 ft 427 kts 287°
2026-05-09 06:27 55.17206 13.07534 34296 ft 426 kts 287°
2026-05-09 06:28 55.18517 12.97443 34303 ft 425 kts 287°
2026-05-09 06:28 55.19806 12.87432 34302 ft 424 kts 287°
2026-05-09 06:29 55.21093 12.77354 34297 ft 424 kts 287°
2026-05-09 06:29 55.22371 12.67290 34291 ft 422 kts 287°
2026-05-09 06:30 55.23639 12.57257 34308 ft 421 kts 287°
2026-05-09 06:30 55.24901 12.47220 34307 ft 421 kts 287°
2026-05-09 06:31 55.26139 12.37270 34310 ft 420 kts 287°
2026-05-09 06:31 55.27374 12.27257 34308 ft 420 kts 287°
2026-05-09 06:32 55.28398 12.18918 34290 ft 419 kts 287°
2026-05-09 06:33 55.30219 12.03924 34304 ft 418 kts 287°
2026-05-09 06:33 55.31424 11.93941 34311 ft 418 kts 286°
2026-05-09 06:34 55.33212 11.78960 34309 ft 418 kts 286°
2026-05-09 06:34 55.34386 11.68965 34311 ft 417 kts 286°
2026-05-09 06:35 55.35555 11.59051 34294 ft 416 kts 286°
2026-05-09 06:35 55.36725 11.49077 34295 ft 416 kts 285°
2026-05-09 06:36 55.37877 11.39105 34295 ft 416 kts 285°
2026-05-09 06:36 55.39021 11.29125 34294 ft 416 kts 285°
2026-05-09 06:37 55.40155 11.19161 34293 ft 416 kts 285°
2026-05-09 06:37 55.41287 11.09166 34284 ft 415 kts 284°
2026-05-09 06:38 55.42396 10.99255 34293 ft 415 kts 284°
2026-05-09 06:38 55.43508 10.89280 34296 ft 415 kts 284°
2026-05-09 06:39 55.44612 10.79294 34301 ft 415 kts 284°
2026-05-09 06:39 55.45702 10.69320 34303 ft 414 kts 284°
2026-05-09 06:40 55.46779 10.59388 34310 ft 414 kts 284°
2026-05-09 06:40 55.47851 10.49403 34311 ft 414 kts 284°
2026-05-09 06:41 55.48920 10.39423 34312 ft 414 kts 284°
2026-05-09 06:41 55.49985 10.29438 34289 ft 414 kts 284°
2026-05-09 06:42 55.51035 10.19442 34288 ft 414 kts 284°
2026-05-09 06:42 55.52074 10.09438 34288 ft 414 kts 284°
2026-05-09 06:43 55.53106 9.99425 34285 ft 414 kts 283°
2026-05-09 06:43 55.54131 9.89488 34293 ft 414 kts 283°
2026-05-09 06:44 55.55149 9.79488 34287 ft 413 kts 283°
2026-05-09 06:44 55.56156 9.69482 34290 ft 413 kts 283°
2026-05-09 06:45 55.57151 9.59482 34290 ft 413 kts 283°
2026-05-09 06:45 55.58145 9.49485 34280 ft 413 kts 282°
2026-05-09 06:46 55.59125 9.39493 34291 ft 413 kts 282°
2026-05-09 06:46 55.60097 9.29492 34289 ft 413 kts 282°
2026-05-09 06:47 55.61064 9.19482 34294 ft 413 kts 282°
2026-05-09 06:47 55.62021 9.09478 34290 ft 413 kts 282°
2026-05-09 06:48 55.62968 8.99448 34289 ft 413 kts 282°
2026-05-09 06:48 55.63906 8.89428 34287 ft 412 kts 281°
2026-05-09 06:49 55.64841 8.79399 34286 ft 412 kts 281°
2026-05-09 06:49 55.65771 8.69396 34288 ft 412 kts 281°
2026-05-09 06:50 55.66689 8.59367 34286 ft 412 kts 281°
2026-05-09 06:50 55.67580 8.49417 34281 ft 411 kts 281°
2026-05-09 06:51 55.68473 8.39399 34277 ft 411 kts 280°
2026-05-09 06:51 55.69365 8.29394 34274 ft 410 kts 280°
2026-05-09 06:52 55.70248 8.19400 34273 ft 410 kts 280°
2026-05-09 06:52 55.71120 8.09404 34276 ft 410 kts 280°
2026-05-09 06:53 55.71988 7.99400 34276 ft 410 kts 280°
2026-05-09 06:53 55.72832 7.89457 34273 ft 410 kts 280°
2026-05-09 06:54 55.73672 7.79456 34269 ft 410 kts 279°
2026-05-09 06:54 55.74513 7.69416 34273 ft 410 kts 279°
2026-05-09 06:55 55.75343 7.59410 34274 ft 410 kts 279°
2026-05-09 06:55 55.76165 7.49394 34274 ft 409 kts 279°
2026-05-09 06:56 55.76970 7.39455 34266 ft 409 kts 279°
2026-05-09 06:56 55.77774 7.29455 34273 ft 409 kts 278°
2026-05-09 06:57 55.78571 7.19461 34270 ft 409 kts 278°
2026-05-09 06:57 55.79363 7.09432 34270 ft 409 kts 278°
2026-05-09 06:58 55.80140 6.99433 34269 ft 408 kts 278°
2026-05-09 06:58 55.80896 6.89493 34265 ft 408 kts 278°
2026-05-09 06:59 55.81653 6.79489 34267 ft 408 kts 278°
2026-05-09 06:59 55.82406 6.69479 34269 ft 408 kts 277°
2026-05-09 07:00 55.83150 6.59477 34270 ft 407 kts 277°
2026-05-09 07:00 55.83886 6.49482 34269 ft 407 kts 277°
2026-05-09 07:01 55.84612 6.39485 34264 ft 407 kts 277°
2026-05-09 07:01 55.85325 6.29540 34264 ft 407 kts 277°
2026-05-09 07:02 55.86038 6.19545 34275 ft 407 kts 276°
2026-05-09 07:02 55.86750 6.09546 34273 ft 406 kts 276°
2026-05-09 07:03 55.87436 5.99557 34267 ft 406 kts 276°
2026-05-09 07:03 55.88118 5.89576 34269 ft 406 kts 276°
2026-05-09 07:04 55.88799 5.79598 34261 ft 405 kts 276°
2026-05-09 07:04 55.89471 5.69631 34263 ft 405 kts 276°
2026-05-09 07:05 55.90127 5.59723 34258 ft 405 kts 275°
2026-05-09 07:05 55.90773 5.49755 34258 ft 404 kts 275°
2026-05-09 07:06 55.91406 5.39792 34255 ft 404 kts 275°
2026-05-09 07:06 55.92042 5.29848 34254 ft 403 kts 275°
2026-05-09 07:07 55.92662 5.19976 34251 ft 403 kts 275°
2026-05-09 07:07 55.93277 5.10042 34251 ft 403 kts 275°
2026-05-09 07:08 55.93941 5.00114 34245 ft 404 kts 279°
2026-05-09 07:08 55.95459 4.90450 34240 ft 405 kts 284°
2026-05-09 07:09 55.97042 4.80798 34239 ft 405 kts 284°
2026-05-09 07:09 55.98603 4.71143 34240 ft 405 kts 284°
2026-05-09 07:10 56.00146 4.61517 34237 ft 405 kts 283°
2026-05-09 07:10 56.01689 4.51845 34247 ft 405 kts 283°
2026-05-09 07:11 56.03229 4.42178 34242 ft 404 kts 283°
2026-05-09 07:11 56.04769 4.32480 34244 ft 404 kts 283°
2026-05-09 07:12 56.06296 4.22795 34236 ft 404 kts 283°
2026-05-09 07:12 56.07815 4.13101 34237 ft 404 kts 283°
2026-05-09 07:13 56.09306 4.03473 34231 ft 404 kts 283°
2026-05-09 07:13 56.10807 3.93763 34238 ft 404 kts 282°
2026-05-09 07:14 56.12303 3.84068 34236 ft 404 kts 282°
2026-05-09 07:14 56.13788 3.74355 34232 ft 404 kts 282°
2026-05-09 07:15 56.15267 3.64648 34227 ft 404 kts 282°
2026-05-09 07:15 56.16734 3.54933 34225 ft 403 kts 282°
2026-05-09 07:16 56.17950 3.45134 34223 ft 402 kts 277°
2026-05-09 07:16 56.18901 3.35253 34234 ft 401 kts 277°
2026-05-09 07:17 56.19850 3.25393 34238 ft 400 kts 277°
2026-05-09 07:17 56.20773 3.15595 34237 ft 400 kts 277°
2026-05-09 07:18 56.21693 3.05720 34216 ft 400 kts 277°
2026-05-09 07:18 56.22606 2.95872 34221 ft 399 kts 277°
2026-05-09 07:19 56.23521 2.86019 34223 ft 399 kts 277°
2026-05-09 07:19 56.24427 2.76192 34229 ft 397 kts 276°
2026-05-09 07:20 56.25305 2.66401 34227 ft 396 kts 276°
2026-05-09 07:20 56.26172 2.56656 34222 ft 396 kts 276°
2026-05-09 07:21 56.27048 2.46864 34230 ft 397 kts 276°
2026-05-09 07:21 56.27914 2.37056 34232 ft 397 kts 276°
2026-05-09 07:22 56.28767 2.27257 34269 ft 396 kts 275°
2026-05-09 07:22 56.29474 2.19154 34244 ft 393 kts 275°
2026-05-09 07:23 56.30302 2.09456 34253 ft 392 kts 275°
2026-05-09 07:23 56.31254 1.98188 34252 ft 391 kts 275°
2026-05-09 07:24 56.32065 1.88496 34231 ft 392 kts 275°
2026-05-09 07:24 56.32738 1.80403 34226 ft 391 kts 275°
2026-05-09 07:25 56.33530 1.70714 34247 ft 390 kts 274°
2026-05-09 07:25 56.34322 1.61036 34242 ft 390 kts 274°
2026-05-09 07:26 56.35111 1.51367 34241 ft 389 kts 274°
2026-05-09 07:26 56.35879 1.41704 34238 ft 389 kts 274°
2026-05-09 07:27 56.36646 1.32037 34236 ft 389 kts 274°
2026-05-09 07:27 56.37403 1.22428 34235 ft 389 kts 274°
2026-05-09 07:28 56.38156 1.12760 34254 ft 389 kts 273°
2026-05-09 07:28 56.38894 1.03085 34249 ft 389 kts 273°
2026-05-09 07:29 56.39623 0.93418 34246 ft 389 kts 273°
2026-05-09 07:29 56.40345 0.83796 34250 ft 389 kts 273°
2026-05-09 07:30 56.41131 0.74133 34234 ft 393 kts 278°
2026-05-09 07:30 56.43054 0.64762 34226 ft 403 kts 289°
2026-05-09 07:31 56.45543 0.55635 33419 ft 404 kts 289°
2026-05-09 07:31 56.46762 0.51001 31696 ft 411 kts 288°
2026-05-09 07:31 56.47926 0.46276 30290 ft 410 kts 286°
2026-05-09 07:32 56.49028 0.41547 28907 ft 405 kts 286°
2026-05-09 07:32 56.50078 0.36891 28503 ft 393 kts 285°
2026-05-09 07:32 56.51092 0.32371 28177 ft 384 kts 285°
2026-05-09 07:32 56.52090 0.27922 27735 ft 378 kts 285°
2026-05-09 07:33 56.53064 0.23593 27316 ft 373 kts 285°
2026-05-09 07:33 56.55015 0.14989 26472 ft 365 kts 286°
2026-05-09 07:33 56.55978 0.10750 26067 ft 361 kts 286°
2026-05-09 07:34 56.56926 0.06554 25662 ft 359 kts 286°
2026-05-09 07:34 56.57862 0.02384 25293 ft 356 kts 285°
2026-05-09 07:34 56.58792 -0.01769 24900 ft 354 kts 286°
2026-05-09 07:34 56.59719 -0.05896 24501 ft 352 kts 286°
2026-05-09 07:35 56.60634 -0.09992 24123 ft 349 kts 286°
2026-05-09 07:35 56.61538 -0.14052 23737 ft 345 kts 286°
2026-05-09 07:35 56.62431 -0.18071 23330 ft 341 kts 286°
2026-05-09 07:35 56.63313 -0.22036 22981 ft 335 kts 286°
2026-05-09 07:36 56.64184 -0.25928 22620 ft 330 kts 286°
2026-05-09 07:36 56.65041 -0.29761 22253 ft 325 kts 286°
2026-05-09 07:36 56.65889 -0.33576 21892 ft 324 kts 286°
2026-05-09 07:36 56.66731 -0.37376 21521 ft 323 kts 286°
2026-05-09 07:37 56.67565 -0.41154 21152 ft 322 kts 286°
2026-05-09 07:37 56.68384 -0.44873 20788 ft 320 kts 286°
2026-05-09 07:37 56.69209 -0.48626 20421 ft 319 kts 286°
2026-05-09 07:37 56.70032 -0.52366 20032 ft 318 kts 287°
2026-05-09 07:38 56.70849 -0.56090 19658 ft 316 kts 287°
2026-05-09 07:38 56.71660 -0.59804 19269 ft 315 kts 287°
2026-05-09 07:38 56.72469 -0.63509 18889 ft 314 kts 287°
2026-05-09 07:38 56.73274 -0.67193 18498 ft 313 kts 287°
2026-05-09 07:39 56.74075 -0.70873 18086 ft 311 kts 287°
2026-05-09 07:39 56.74871 -0.74543 17697 ft 310 kts 286°
2026-05-09 07:39 56.75661 -0.78199 17315 ft 309 kts 287°
2026-05-09 07:39 56.76438 -0.81782 16934 ft 307 kts 287°
2026-05-09 07:40 56.77222 -0.85400 16548 ft 306 kts 287°
2026-05-09 07:40 56.77999 -0.89005 16167 ft 305 kts 287°
2026-05-09 07:40 56.78772 -0.92599 15785 ft 303 kts 287°
2026-05-09 07:40 56.79540 -0.96169 15409 ft 302 kts 287°
2026-05-09 07:41 56.80304 -0.99729 15032 ft 301 kts 287°
2026-05-09 07:41 56.81064 -1.03277 14654 ft 299 kts 286°
2026-05-09 07:41 56.81818 -1.06803 14277 ft 298 kts 286°
2026-05-09 07:41 56.82569 -1.10318 13886 ft 296 kts 287°
2026-05-09 07:42 56.83317 -1.13820 13500 ft 295 kts 287°
2026-05-09 07:42 56.84056 -1.17296 13156 ft 293 kts 287°
2026-05-09 07:42 56.84790 -1.20755 12761 ft 291 kts 287°
2026-05-09 07:42 56.85519 -1.24191 12400 ft 289 kts 287°
2026-05-09 07:43 56.86240 -1.27604 12027 ft 287 kts 287°
2026-05-09 07:43 56.86957 -1.31001 11658 ft 286 kts 287°
2026-05-09 07:43 56.87659 -1.34333 11317 ft 284 kts 287°
2026-05-09 07:43 56.88367 -1.37706 10956 ft 283 kts 287°
2026-05-09 07:44 56.89071 -1.41049 10612 ft 280 kts 287°
2026-05-09 07:44 56.89767 -1.44353 10334 ft 276 kts 287°
2026-05-09 07:44 56.90449 -1.47600 10158 ft 272 kts 287°
2026-05-09 07:44 56.91127 -1.50840 10021 ft 272 kts 287°
2026-05-09 07:45 56.91803 -1.54075 9890 ft 272 kts 287°
2026-05-09 07:45 56.92478 -1.57319 9522 ft 273 kts 288°
2026-05-09 07:45 56.93155 -1.60562 9118 ft 272 kts 288°
2026-05-09 07:45 56.93831 -1.63809 8722 ft 271 kts 288°
2026-05-09 07:46 56.94490 -1.66976 8268 ft 267 kts 287°
2026-05-09 07:46 56.95147 -1.70142 7785 ft 260 kts 288°
2026-05-09 07:46 56.95789 -1.73245 7180 ft 258 kts 289°
2026-05-09 07:46 56.96406 -1.76230 6657 ft 251 kts 290°
2026-05-09 07:47 56.97024 -1.79221 6205 ft 253 kts 290°
2026-05-09 07:47 56.97648 -1.82253 5765 ft 255 kts 290°
2026-05-09 07:47 56.98271 -1.85297 5330 ft 253 kts 292°
2026-05-09 07:47 56.98884 -1.88298 4912 ft 248 kts 292°
2026-05-09 07:48 56.99475 -1.91207 4507 ft 236 kts 293°
2026-05-09 07:48 57.00039 -1.93981 4140 ft 230 kts 294°
2026-05-09 07:48 57.00597 -1.96714 3746 ft 229 kts 295°
2026-05-09 07:48 57.01155 -1.99432 3363 ft 226 kts 295°
2026-05-09 07:49 57.01706 -2.02117 3057 ft 221 kts 295°
2026-05-09 07:49 57.02238 -2.04629 3004 ft 205 kts 300°
2026-05-09 07:49 57.03002 -2.06590 3010 ft 175 kts 320°
2026-05-09 07:49 57.03922 -2.07805 3000 ft 154 kts 337°
2026-05-09 07:50 57.04893 -2.08541 3003 ft 150 kts 341°
2026-05-09 07:50 57.05849 -2.09242 3008 ft 148 kts 342°
2026-05-09 07:50 57.06805 -2.09941 3007 ft 148 kts 341°
2026-05-09 07:50 57.07767 -2.10646 2975 ft 149 kts 341°
2026-05-09 07:51 57.08736 -2.11356 2663 ft 150 kts 341°
2026-05-09 07:51 57.09685 -2.12053 2450 ft 146 kts 340°
2026-05-09 07:51 57.10615 -2.12734 2218 ft 143 kts 339°
2026-05-09 07:51 57.11517 -2.13396 1997 ft 138 kts 340°
2026-05-09 07:52 57.12400 -2.14044 1812 ft 136 kts 339°
2026-05-09 07:52 57.13277 -2.14687 1610 ft 135 kts 340°
2026-05-09 07:52 57.14158 -2.15335 1427 ft 143 kts 338°
2026-05-09 07:52 57.15060 -2.15997 1223 ft 135 kts 338°
2026-05-09 07:53 57.15920 -2.16630 1037 ft 134 kts 338°
2026-05-09 07:53 57.16787 -2.17268 839 ft 134 kts 338°
2026-05-09 07:53 57.17664 -2.17911 650 ft 136 kts 338°
2026-05-09 07:53 57.18533 -2.18547 477 ft 134 kts 337°
2026-05-09 07:54 57.19403 -2.19192 301 ft 134 kts 336°
2026-05-09 07:54 57.20208 -2.19792 248 ft 100 kts 338°
2026-05-09 07:54 57.20560 -2.20050 249 ft 14 kts 338°
2026-05-09 07:54 57.20593 -2.20136 249 ft 6 kts 243°
2026-05-09 07:55 57.20551 -2.20226 247 ft 11 kts 229°
2026-05-09 07:55 57.20514 -2.20295 247 ft 7 kts 224°
2026-05-09 07:55 57.20473 -2.20367 247 ft 9 kts 223°
2026-05-09 07:55 57.20413 -2.20379 247 ft 10 kts 159°
2026-05-09 07:56 57.20346 -2.20331 247 ft 11 kts 159°
2026-05-09 07:56 57.20275 -2.20278 247 ft 11 kts 158°
2026-05-09 07:56 57.20200 -2.20222 247 ft 13 kts 158°
2026-05-09 07:56 57.20145 -2.20270 247 ft 10 kts 245°
2026-05-09 07:57 57.20138 -2.20301 247 ft 2 kts 248°
2026-05-09 07:57 57.20137 -2.20305 247 ft 0 kts 248°